IRIDIUM 3

Last updated on Wed Nov 29 2017 00:19:03 GMT+0000 (Coordinated Universal Time)

1 25431U 98048A 17332.57062854 .00000112 00000-0 32999-4 0 9997 2 25431 86.3980 187.0218 0001950 92.1980 323.2573 14.34219292 9182
UTC large
Height (km)
Speed (km/s)
/
Latitude / Longitude
Inclination (degrees)
Orbital Period (minutes)
Azimuth
Elevation
Range (km)
Doppler Factor

Next 0 passes for location: London (51.5072 / 0.1276)

Sorry there are no passes over London.